Year,Month,Day,Hour,Minute,Value (Times are PST for windgust in km/hr)
2014,11,05,00,02,3.20
2014,11,05,00,04,4.80
2014,11,05,00,05,8.10
2014,11,05,00,06,4.80
2014,11,05,00,53,1.60
2014,11,05,00,54,1.60
2014,11,05,01,02,1.60
2014,11,05,01,05,1.60
2014,11,05,01,18,1.60
2014,11,05,01,20,4.80
2014,11,05,01,21,4.80
2014,11,05,01,22,3.20
2014,11,05,01,23,3.20
2014,11,05,01,25,1.60
2014,11,05,01,27,4.80
2014,11,05,01,28,4.80
2014,11,05,01,29,1.60
2014,11,05,01,30,1.60
2014,11,05,01,31,3.20
2014,11,05,01,32,1.60
2014,11,05,01,33,4.80
2014,11,05,01,34,3.20
2014,11,05,01,38,1.60
2014,11,05,01,39,1.60
2014,11,05,01,41,4.80
2014,11,05,01,42,3.20
2014,11,05,01,43,3.20
2014,11,05,01,44,1.60
2014,11,05,01,45,3.20
2014,11,05,01,46,1.60
2014,11,05,01,47,4.80
2014,11,05,01,48,8.10
2014,11,05,01,49,8.10
2014,11,05,01,50,8.10
2014,11,05,01,51,6.40
2014,11,05,01,52,6.40
2014,11,05,01,53,3.20
2014,11,05,01,55,4.80
2014,11,05,01,56,4.80
2014,11,05,01,57,4.80
2014,11,05,01,58,1.60
2014,11,05,01,59,1.60
2014,11,05,02,01,6.40
2014,11,05,02,02,4.80
2014,11,05,02,04,1.60
2014,11,05,02,05,4.80
2014,11,05,02,09,3.20
2014,11,05,02,10,4.80
2014,11,05,02,11,6.40
2014,11,05,02,12,6.40
2014,11,05,02,13,6.40
2014,11,05,02,14,6.40
2014,11,05,02,15,6.40
2014,11,05,02,16,3.20
2014,11,05,02,19,1.60
2014,11,05,02,25,1.60
2014,11,05,02,30,3.20
2014,11,05,02,32,1.60
2014,11,05,02,35,1.60
2014,11,05,02,53,1.60
2014,11,05,03,17,3.20
2014,11,05,03,18,4.80
2014,11,05,03,19,4.80
2014,11,05,03,20,4.80
2014,11,05,03,21,4.80
2014,11,05,03,22,3.20
2014,11,05,03,23,3.20
2014,11,05,03,25,6.40
2014,11,05,03,26,4.80
2014,11,05,03,27,8.10
2014,11,05,03,28,8.10
2014,11,05,03,29,11.30
2014,11,05,03,30,11.30
2014,11,05,03,31,8.10
2014,11,05,03,32,16.10
2014,11,05,03,33,17.70
2014,11,05,03,34,8.10
2014,11,05,03,35,11.30
2014,11,05,03,36,8.10
2014,11,05,03,37,3.20
2014,11,05,03,38,4.80
2014,11,05,03,39,6.40
2014,11,05,03,40,12.90
2014,11,05,03,41,11.30
2014,11,05,03,42,9.60
2014,11,05,03,43,8.10
2014,11,05,03,44,6.40
2014,11,05,03,45,8.10
2014,11,05,03,46,8.10
2014,11,05,03,47,6.40
2014,11,05,03,48,4.80
2014,11,05,03,49,6.40
2014,11,05,03,50,4.80
2014,11,05,03,54,3.20
2014,11,05,03,55,8.10
2014,11,05,03,56,6.40
2014,11,05,03,57,9.60
2014,11,05,03,58,6.40
2014,11,05,03,59,9.60
2014,11,05,04,00,8.10
2014,11,05,04,01,6.40
2014,11,05,04,02,8.10
2014,11,05,04,03,4.80
2014,11,05,04,04,6.40
2014,11,05,04,05,9.60
2014,11,05,04,06,9.60
2014,11,05,04,07,8.10
2014,11,05,04,08,12.90
2014,11,05,04,09,8.10
2014,11,05,04,10,11.30
2014,11,05,04,11,6.40
2014,11,05,04,12,3.20
2014,11,05,04,13,12.90
2014,11,05,04,14,3.20
2014,11,05,04,15,8.10
2014,11,05,04,16,4.80
2014,11,05,04,17,3.20
2014,11,05,04,18,1.60
2014,11,05,04,19,1.60
2014,11,05,04,20,6.40
2014,11,05,04,21,4.80
2014,11,05,04,22,3.20
2014,11,05,04,23,6.40
2014,11,05,04,24,3.20
2014,11,05,04,25,11.30
2014,11,05,04,26,4.80
2014,11,05,04,27,8.10
2014,11,05,04,28,3.20
2014,11,05,04,29,6.40
2014,11,05,04,30,6.40
2014,11,05,04,31,4.80
2014,11,05,04,32,6.40
2014,11,05,04,35,4.80
2014,11,05,04,36,6.40
2014,11,05,04,37,3.20
2014,11,05,04,38,4.80
2014,11,05,04,39,1.60
2014,11,05,04,40,4.80
2014,11,05,04,41,3.20
2014,11,05,04,43,4.80
2014,11,05,04,45,4.80
2014,11,05,04,47,1.60
2014,11,05,04,48,1.60
2014,11,05,04,49,3.20
2014,11,05,04,50,3.20
2014,11,05,04,51,1.60
2014,11,05,04,53,3.20
2014,11,05,04,54,6.40
2014,11,05,04,55,6.40
2014,11,05,04,57,4.80
2014,11,05,05,00,4.80
2014,11,05,05,01,6.40
2014,11,05,05,03,1.60
2014,11,05,05,04,3.20
2014,11,05,05,05,3.20
2014,11,05,05,07,9.60
2014,11,05,05,08,8.10
2014,11,05,05,09,3.20
2014,11,05,05,10,6.40
2014,11,05,05,11,4.80
2014,11,05,05,12,4.80
2014,11,05,05,13,4.80
2014,11,05,05,14,4.80
2014,11,05,05,15,6.40
2014,11,05,05,16,6.40
2014,11,05,05,17,4.80
2014,11,05,05,18,1.60
2014,11,05,05,19,3.20
2014,11,05,05,20,3.20
2014,11,05,05,22,6.40
2014,11,05,05,23,4.80
2014,11,05,05,24,6.40
2014,11,05,05,25,6.40
2014,11,05,05,26,8.10
2014,11,05,05,27,4.80
2014,11,05,05,28,6.40
2014,11,05,05,29,6.40
2014,11,05,05,30,4.80
2014,11,05,05,31,1.60
2014,11,05,05,32,6.40
2014,11,05,05,33,6.40
2014,11,05,05,34,8.10
2014,11,05,05,35,4.80
2014,11,05,05,36,6.40
2014,11,05,05,37,4.80
2014,11,05,05,38,4.80
2014,11,05,05,39,8.10
2014,11,05,05,40,9.60
2014,11,05,05,41,9.60
2014,11,05,05,42,8.10
2014,11,05,05,43,9.60
2014,11,05,05,44,6.40
2014,11,05,05,45,8.10
2014,11,05,05,46,8.10
2014,11,05,05,47,6.40
2014,11,05,05,48,6.40
2014,11,05,05,49,1.60
2014,11,05,05,50,6.40
2014,11,05,05,51,4.80
2014,11,05,05,52,6.40
2014,11,05,05,53,1.60
2014,11,05,05,54,4.80
2014,11,05,05,56,3.20
2014,11,05,05,57,6.40
2014,11,05,05,58,9.60
2014,11,05,05,59,12.90
2014,11,05,06,00,12.90
2014,11,05,06,01,3.20
2014,11,05,06,02,6.40
2014,11,05,06,03,8.10
2014,11,05,06,04,11.30
2014,11,05,06,05,11.30
2014,11,05,06,06,12.90
2014,11,05,06,07,14.50
2014,11,05,06,08,12.90
2014,11,05,06,09,8.10
2014,11,05,06,10,8.10
2014,11,05,06,11,8.10
2014,11,05,06,12,12.90
2014,11,05,06,13,6.40
2014,11,05,06,14,11.30
2014,11,05,06,15,9.60
2014,11,05,06,16,8.10
2014,11,05,06,17,12.90
2014,11,05,06,18,11.30
2014,11,05,06,19,17.70
2014,11,05,06,20,9.60
2014,11,05,06,21,16.10
2014,11,05,06,22,4.80
2014,11,05,06,23,8.10
2014,11,05,06,24,6.40
2014,11,05,06,25,8.10
2014,11,05,06,26,4.80
2014,11,05,06,27,8.10
2014,11,05,06,28,6.40
2014,11,05,06,29,6.40
2014,11,05,06,30,4.80
2014,11,05,06,31,4.80
2014,11,05,06,32,8.10
2014,11,05,06,33,8.10
2014,11,05,06,34,4.80
2014,11,05,06,35,8.10
2014,11,05,06,36,6.40
2014,11,05,06,37,6.40
2014,11,05,06,38,8.10
2014,11,05,06,39,8.10
2014,11,05,06,40,11.30
2014,11,05,06,41,8.10
2014,11,05,06,42,1.60
2014,11,05,06,43,11.30
2014,11,05,06,44,8.10
2014,11,05,06,45,8.10
2014,11,05,06,46,11.30
2014,11,05,06,47,12.90
2014,11,05,06,48,14.50
2014,11,05,06,49,14.50
2014,11,05,06,50,17.70
2014,11,05,06,51,8.10
2014,11,05,06,52,8.10
2014,11,05,06,53,8.10
2014,11,05,06,54,8.10
2014,11,05,06,55,4.80
2014,11,05,06,56,12.90
2014,11,05,06,57,11.30
2014,11,05,06,58,12.90
2014,11,05,06,59,11.30
2014,11,05,07,00,11.30
2014,11,05,07,01,11.30
2014,11,05,07,02,6.40
2014,11,05,07,03,1.60
2014,11,05,07,04,3.20
2014,11,05,07,05,3.20
2014,11,05,07,06,8.10
2014,11,05,07,07,8.10
2014,11,05,07,08,9.60
2014,11,05,07,09,8.10
2014,11,05,07,10,12.90
2014,11,05,07,11,1.60
2014,11,05,07,12,1.60
2014,11,05,07,13,8.10
2014,11,05,07,14,9.60
2014,11,05,07,15,9.60
2014,11,05,07,16,4.80
2014,11,05,07,19,4.80
2014,11,05,07,20,6.40
2014,11,05,07,21,4.80
2014,11,05,07,22,3.20
2014,11,05,07,24,4.80
2014,11,05,07,25,9.60
2014,11,05,07,26,6.40
2014,11,05,07,27,12.90
2014,11,05,07,28,11.30
2014,11,05,07,29,11.30
2014,11,05,07,30,8.10
2014,11,05,07,31,3.20
2014,11,05,07,32,9.60
2014,11,05,07,33,9.60
2014,11,05,07,34,1.60
2014,11,05,07,35,3.20
2014,11,05,07,36,6.40
2014,11,05,07,37,8.10
2014,11,05,07,38,12.90
2014,11,05,07,39,8.10
2014,11,05,07,40,3.20
2014,11,05,07,41,3.20
2014,11,05,07,42,11.30
2014,11,05,07,43,16.10
2014,11,05,07,44,11.30
2014,11,05,07,45,14.50
2014,11,05,07,46,6.40
2014,11,05,07,47,6.40
2014,11,05,07,48,8.10
2014,11,05,07,49,11.30
2014,11,05,07,50,1.60
2014,11,05,07,51,9.60
2014,11,05,07,52,6.40
2014,11,05,07,53,4.80
2014,11,05,07,54,12.90
2014,11,05,07,55,12.90
2014,11,05,07,56,8.10
2014,11,05,07,57,8.10
2014,11,05,07,58,9.60
2014,11,05,07,59,9.60
2014,11,05,08,00,11.30
2014,11,05,08,01,11.30
2014,11,05,08,02,14.50
2014,11,05,08,03,4.80
2014,11,05,08,04,11.30
2014,11,05,08,05,16.10
2014,11,05,08,06,11.30
2014,11,05,08,07,14.50
2014,11,05,08,08,3.20
2014,11,05,08,09,11.30
2014,11,05,08,10,4.80
2014,11,05,08,11,8.10
2014,11,05,08,12,3.20
2014,11,05,08,13,8.10
2014,11,05,08,14,9.60
2014,11,05,08,15,12.90
2014,11,05,08,16,8.10
2014,11,05,08,17,8.10
2014,11,05,08,18,4.80
2014,11,05,08,19,8.10
2014,11,05,08,20,16.10
2014,11,05,08,21,11.30
2014,11,05,08,22,8.10
2014,11,05,08,23,9.60
2014,11,05,08,24,11.30
2014,11,05,08,25,6.40
2014,11,05,08,26,6.40
2014,11,05,08,27,8.10
2014,11,05,08,28,8.10
2014,11,05,08,29,4.80
2014,11,05,08,30,6.40
2014,11,05,08,31,6.40
2014,11,05,08,32,1.60
2014,11,05,08,33,11.30
2014,11,05,08,34,12.90
2014,11,05,08,35,8.10
2014,11,05,08,36,4.80
2014,11,05,08,37,6.40
2014,11,05,08,38,4.80
2014,11,05,08,39,4.80
2014,11,05,08,40,1.60
2014,11,05,08,41,9.60
2014,11,05,08,42,3.20
2014,11,05,08,43,8.10
2014,11,05,08,44,1.60
2014,11,05,08,47,11.30
2014,11,05,08,48,19.30
2014,11,05,08,49,17.70
2014,11,05,08,50,14.50
2014,11,05,08,51,14.50
2014,11,05,08,52,17.70
2014,11,05,08,53,8.10
2014,11,05,08,54,4.80
2014,11,05,08,55,4.80
2014,11,05,08,56,9.60
2014,11,05,08,57,16.10
2014,11,05,08,58,9.60
2014,11,05,08,59,12.90
2014,11,05,09,00,11.30
2014,11,05,09,01,12.90
2014,11,05,09,02,14.50
2014,11,05,09,03,14.50
2014,11,05,09,04,17.70
2014,11,05,09,05,6.40
2014,11,05,09,06,11.30
2014,11,05,09,07,11.30
2014,11,05,09,08,11.30
2014,11,05,09,09,9.60
2014,11,05,09,10,14.50
2014,11,05,09,11,19.30
2014,11,05,09,12,12.90
2014,11,05,09,13,11.30
2014,11,05,09,14,4.80
2014,11,05,09,15,14.50
2014,11,05,09,16,17.70
2014,11,05,09,17,19.30
2014,11,05,09,18,12.90
2014,11,05,09,19,16.10
2014,11,05,09,20,11.30
2014,11,05,09,21,11.30
2014,11,05,09,22,14.50
2014,11,05,09,23,19.30
2014,11,05,09,24,14.50
2014,11,05,09,25,19.30
2014,11,05,09,26,12.90
2014,11,05,09,27,16.10
2014,11,05,09,28,14.50
2014,11,05,09,29,16.10
2014,11,05,09,30,20.90
2014,11,05,09,31,12.90
2014,11,05,09,32,14.50
2014,11,05,09,33,8.10
2014,11,05,09,34,11.30
2014,11,05,09,35,16.10
2014,11,05,09,36,11.30
2014,11,05,09,37,16.10
2014,11,05,09,38,17.70
2014,11,05,09,39,12.90
2014,11,05,09,40,12.90
2014,11,05,09,41,16.10
2014,11,05,09,42,17.70
2014,11,05,09,43,11.30
2014,11,05,09,44,6.40
2014,11,05,09,45,19.30
2014,11,05,09,46,16.10
2014,11,05,09,47,17.70
2014,11,05,09,48,19.30
2014,11,05,09,49,17.70
2014,11,05,09,50,27.40
2014,11,05,09,51,14.50
2014,11,05,09,52,6.40
2014,11,05,09,53,12.90
2014,11,05,09,54,17.70
2014,11,05,09,55,14.50
2014,11,05,09,56,17.70
2014,11,05,09,57,14.50
2014,11,05,09,58,20.90
2014,11,05,09,59,24.20
2014,11,05,10,00,19.30
2014,11,05,10,01,17.70
2014,11,05,10,02,20.90
2014,11,05,10,03,17.70
2014,11,05,10,04,19.30
2014,11,05,10,05,19.30
2014,11,05,10,06,29.00
2014,11,05,10,07,16.10
2014,11,05,10,08,14.50
2014,11,05,10,09,11.30
2014,11,05,10,10,17.70
2014,11,05,10,11,14.50
2014,11,05,10,12,16.10
2014,11,05,10,13,17.70
2014,11,05,10,14,20.90
2014,11,05,10,15,14.50
2014,11,05,10,16,8.10
2014,11,05,10,17,12.90
2014,11,05,10,18,16.10
2014,11,05,10,19,17.70
2014,11,05,10,20,16.10
2014,11,05,10,21,14.50
2014,11,05,10,22,17.70
2014,11,05,10,23,11.30
2014,11,05,10,24,11.30
2014,11,05,10,25,14.50
2014,11,05,10,26,11.30
2014,11,05,10,27,11.30
2014,11,05,10,28,20.90
2014,11,05,10,29,22.50
2014,11,05,10,30,9.60
2014,11,05,10,31,11.30
2014,11,05,10,32,14.50
2014,11,05,10,33,11.30
2014,11,05,10,34,9.60
2014,11,05,10,35,14.50
2014,11,05,10,36,16.10
2014,11,05,10,37,8.10
2014,11,05,10,38,12.90
2014,11,05,10,39,12.90
2014,11,05,10,40,19.30
2014,11,05,10,41,19.30
2014,11,05,10,42,14.50
2014,11,05,10,43,16.10
2014,11,05,10,44,14.50
2014,11,05,10,45,14.50
2014,11,05,10,46,11.30
2014,11,05,10,47,11.30
2014,11,05,10,48,17.70
2014,11,05,10,49,12.90
2014,11,05,10,50,19.30
2014,11,05,10,51,14.50
2014,11,05,10,52,20.90
2014,11,05,10,53,14.50
2014,11,05,10,54,20.90
2014,11,05,10,55,8.10
2014,11,05,10,56,19.30
2014,11,05,10,57,20.90
2014,11,05,10,58,16.10
2014,11,05,10,59,14.50
2014,11,05,11,00,17.70
2014,11,05,11,01,14.50
2014,11,05,11,02,22.50
2014,11,05,11,03,16.10
2014,11,05,11,04,20.90
2014,11,05,11,05,20.90
2014,11,05,11,06,17.70
2014,11,05,11,07,22.50
2014,11,05,11,08,29.00
2014,11,05,11,09,24.20
2014,11,05,11,10,14.50
2014,11,05,11,11,17.70
2014,11,05,11,12,17.70
2014,11,05,11,13,22.50
2014,11,05,11,14,11.30
2014,11,05,11,15,11.30
2014,11,05,11,16,11.30
2014,11,05,11,17,11.30
2014,11,05,11,18,14.50
2014,11,05,11,19,8.10
2014,11,05,11,20,16.10
2014,11,05,11,21,11.30
2014,11,05,11,22,11.30
2014,11,05,11,23,19.30
2014,11,05,11,24,14.50
2014,11,05,11,25,12.90
2014,11,05,11,26,14.50
2014,11,05,11,27,14.50
2014,11,05,11,28,17.70
2014,11,05,11,29,19.30
2014,11,05,11,30,22.50
2014,11,05,11,31,17.70
2014,11,05,11,32,16.10
2014,11,05,11,33,17.70
2014,11,05,11,34,12.90
2014,11,05,11,35,20.90
2014,11,05,11,36,24.20
2014,11,05,11,37,16.10
2014,11,05,11,38,12.90
2014,11,05,11,39,11.30
2014,11,05,11,40,9.60
2014,11,05,11,41,24.20
2014,11,05,11,42,19.30
2014,11,05,11,43,20.90
2014,11,05,11,44,12.90
2014,11,05,11,45,19.30
2014,11,05,11,46,19.30
2014,11,05,11,47,16.10
2014,11,05,11,48,24.20
2014,11,05,11,49,8.10
2014,11,05,11,50,12.90
2014,11,05,11,51,8.10
2014,11,05,11,52,19.30
2014,11,05,11,53,22.50
2014,11,05,11,54,12.90
2014,11,05,11,55,11.30
2014,11,05,11,56,11.30
2014,11,05,11,57,16.10
2014,11,05,11,58,14.50
2014,11,05,11,59,16.10
2014,11,05,12,00,17.70
2014,11,05,12,01,12.90
2014,11,05,12,02,12.90
2014,11,05,12,03,12.90
2014,11,05,12,04,12.90
2014,11,05,12,05,12.90
2014,11,05,12,06,11.30
2014,11,05,12,07,14.50
2014,11,05,12,08,14.50
2014,11,05,12,09,17.70
2014,11,05,12,10,16.10
2014,11,05,12,11,14.50
2014,11,05,12,12,8.10
2014,11,05,12,13,14.50
2014,11,05,12,14,11.30
2014,11,05,12,15,12.90
2014,11,05,12,16,11.30
2014,11,05,12,17,14.50
2014,11,05,12,18,6.40
2014,11,05,12,19,19.30
2014,11,05,12,20,11.30
2014,11,05,12,21,16.10
2014,11,05,12,22,14.50
2014,11,05,12,23,20.90
2014,11,05,12,24,16.10
2014,11,05,12,25,19.30
2014,11,05,12,26,24.20
2014,11,05,12,27,16.10
2014,11,05,12,28,19.30
2014,11,05,12,29,14.50
2014,11,05,12,30,16.10
2014,11,05,12,31,16.10
2014,11,05,12,32,16.10
2014,11,05,12,33,20.90
2014,11,05,12,34,24.20
2014,11,05,12,35,20.90
2014,11,05,12,36,19.30
2014,11,05,12,37,16.10
2014,11,05,12,38,14.50
2014,11,05,12,39,22.50
2014,11,05,12,40,24.20
2014,11,05,12,41,22.50
2014,11,05,12,42,16.10
2014,11,05,12,43,17.70
2014,11,05,12,44,12.90
2014,11,05,12,45,17.70
2014,11,05,12,46,17.70
2014,11,05,12,47,17.70
2014,11,05,12,48,22.50
2014,11,05,12,49,14.50
2014,11,05,12,50,12.90
2014,11,05,12,51,8.10
2014,11,05,12,52,6.40
2014,11,05,12,53,8.10
2014,11,05,12,54,8.10
2014,11,05,12,55,14.50
2014,11,05,12,56,8.10
2014,11,05,12,57,12.90
2014,11,05,12,58,6.40
2014,11,05,12,59,9.60
2014,11,05,13,00,12.90
2014,11,05,13,01,11.30
2014,11,05,13,02,11.30
2014,11,05,13,03,11.30
2014,11,05,13,04,12.90
2014,11,05,13,05,14.50
2014,11,05,13,06,11.30
2014,11,05,13,07,11.30
2014,11,05,13,08,14.50
2014,11,05,13,09,14.50
2014,11,05,13,10,17.70
2014,11,05,13,11,12.90
2014,11,05,13,12,11.30
2014,11,05,13,13,8.10
2014,11,05,13,14,9.60
2014,11,05,13,15,14.50
2014,11,05,13,16,17.70
2014,11,05,13,17,8.10
2014,11,05,13,18,4.80
2014,11,05,13,19,9.60
2014,11,05,13,20,14.50
2014,11,05,13,21,8.10
2014,11,05,13,22,11.30
2014,11,05,13,23,8.10
2014,11,05,13,24,9.60
2014,11,05,13,25,6.40
2014,11,05,13,26,12.90
2014,11,05,13,27,8.10
2014,11,05,13,28,8.10
2014,11,05,13,29,8.10
2014,11,05,13,30,11.30
2014,11,05,13,31,16.10
2014,11,05,13,32,11.30
2014,11,05,13,33,4.80
2014,11,05,13,34,12.90
2014,11,05,13,35,19.30
2014,11,05,13,36,16.10
2014,11,05,13,37,8.10
2014,11,05,13,38,11.30
2014,11,05,13,39,11.30
2014,11,05,13,40,12.90
2014,11,05,13,41,16.10
2014,11,05,13,42,4.80
2014,11,05,13,43,8.10
2014,11,05,13,44,14.50
2014,11,05,13,45,16.10
2014,11,05,13,46,16.10
2014,11,05,13,47,14.50
2014,11,05,13,48,8.10
2014,11,05,13,49,17.70
2014,11,05,13,50,8.10
2014,11,05,13,51,14.50
2014,11,05,13,52,17.70
2014,11,05,13,53,17.70
2014,11,05,13,54,8.10
2014,11,05,13,55,12.90
2014,11,05,13,56,12.90
2014,11,05,13,57,8.10
2014,11,05,13,58,17.70
2014,11,05,13,59,16.10
2014,11,05,14,00,4.80
2014,11,05,14,01,11.30
2014,11,05,14,02,14.50
2014,11,05,14,03,11.30
2014,11,05,14,04,8.10
2014,11,05,14,05,12.90
2014,11,05,14,06,12.90
2014,11,05,14,07,16.10
2014,11,05,14,08,11.30
2014,11,05,14,09,14.50
2014,11,05,14,10,17.70
2014,11,05,14,11,12.90
2014,11,05,14,12,12.90
2014,11,05,14,13,11.30
2014,11,05,14,14,8.10
2014,11,05,14,15,11.30
2014,11,05,14,16,9.60
2014,11,05,14,17,11.30
2014,11,05,14,18,14.50
2014,11,05,14,19,9.60
2014,11,05,14,20,12.90
2014,11,05,14,21,4.80
2014,11,05,14,22,3.20
2014,11,05,14,23,1.60
2014,11,05,14,24,12.90
2014,11,05,14,25,4.80
2014,11,05,14,26,3.20
2014,11,05,14,27,8.10
2014,11,05,14,29,8.10
2014,11,05,14,31,1.60
2014,11,05,14,34,1.60
2014,11,05,14,39,1.60
2014,11,05,14,43,4.80
2014,11,05,14,44,4.80
2014,11,05,14,45,4.80
2014,11,05,14,46,11.30
2014,11,05,14,47,6.40
2014,11,05,14,48,3.20
2014,11,05,14,50,1.60
2014,11,05,14,53,4.80
2014,11,05,15,01,1.60
2014,11,05,15,02,8.10
2014,11,05,15,03,4.80
2014,11,05,15,04,4.80
2014,11,05,15,05,8.10
2014,11,05,15,06,4.80
2014,11,05,15,07,4.80
2014,11,05,15,08,4.80
2014,11,05,15,09,6.40
2014,11,05,15,10,4.80
2014,11,05,15,11,9.60
2014,11,05,15,12,4.80
2014,11,05,15,13,8.10
2014,11,05,15,14,6.40
2014,11,05,15,15,1.60
2014,11,05,15,16,1.60
2014,11,05,15,18,8.10
2014,11,05,15,19,6.40
2014,11,05,15,20,8.10
2014,11,05,15,21,6.40
2014,11,05,15,22,6.40
2014,11,05,15,23,4.80
2014,11,05,15,24,8.10
2014,11,05,15,25,3.20
2014,11,05,15,26,1.60
2014,11,05,15,38,1.60
2014,11,05,15,39,4.80
2014,11,05,15,40,1.60
2014,11,05,15,48,3.20
2014,11,05,15,49,4.80
2014,11,05,15,52,1.60
2014,11,05,15,53,6.40
2014,11,05,15,54,8.10
2014,11,05,15,55,3.20
2014,11,05,15,57,8.10
2014,11,05,15,58,9.60
2014,11,05,15,59,1.60
2014,11,05,16,01,6.40
2014,11,05,16,02,6.40
2014,11,05,16,03,4.80
2014,11,05,16,04,1.60
2014,11,05,16,08,1.60
2014,11,05,16,09,1.60
2014,11,05,16,11,3.20
2014,11,05,16,13,1.60
2014,11,05,16,14,6.40
2014,11,05,16,15,4.80
2014,11,05,16,16,8.10
2014,11,05,16,17,4.80
2014,11,05,16,18,6.40
2014,11,05,16,19,1.60
2014,11,05,16,20,1.60
2014,11,05,16,21,4.80
2014,11,05,16,22,4.80
2014,11,05,16,23,4.80
2014,11,05,16,24,4.80
2014,11,05,16,25,8.10
2014,11,05,16,27,4.80
2014,11,05,16,28,1.60
2014,11,05,16,29,3.20
2014,11,05,16,30,3.20
2014,11,05,16,31,1.60
2014,11,05,16,32,1.60
2014,11,05,16,33,1.60
2014,11,05,16,35,3.20
2014,11,05,16,36,3.20
2014,11,05,16,37,3.20
2014,11,05,16,38,1.60
2014,11,05,16,39,3.20
2014,11,05,16,40,4.80
2014,11,05,16,41,1.60
2014,11,05,16,42,3.20
2014,11,05,16,43,4.80
2014,11,05,16,45,1.60
2014,11,05,16,50,1.60
2014,11,05,16,52,1.60
2014,11,05,16,54,1.60
2014,11,05,17,11,3.20
2014,11,05,17,12,3.20
2014,11,05,17,31,1.60
2014,11,05,17,33,3.20
2014,11,05,17,34,4.80
2014,11,05,17,35,1.60
2014,11,05,17,36,3.20
2014,11,05,17,37,4.80
2014,11,05,17,39,1.60
2014,11,05,17,41,1.60
2014,11,05,17,43,1.60
2014,11,05,17,45,6.40
2014,11,05,17,46,4.80
2014,11,05,17,48,4.80
2014,11,05,17,49,8.10
2014,11,05,17,50,8.10
2014,11,05,17,51,6.40
2014,11,05,17,52,6.40
2014,11,05,17,53,6.40
2014,11,05,17,54,4.80
2014,11,05,17,55,8.10
2014,11,05,17,56,6.40
2014,11,05,17,57,8.10
2014,11,05,17,58,8.10
2014,11,05,17,59,8.10
2014,11,05,18,00,3.20
2014,11,05,18,01,8.10
2014,11,05,18,02,6.40
2014,11,05,18,03,1.60
2014,11,05,18,04,4.80
2014,11,05,18,05,3.20
2014,11,05,18,07,1.60
2014,11,05,18,10,1.60
2014,11,05,19,49,3.20
2014,11,05,19,50,1.60
2014,11,05,19,53,4.80
2014,11,05,19,54,3.20
2014,11,05,20,47,3.20
2014,11,05,20,48,3.20
2014,11,05,21,37,1.60
2014,11,05,21,41,3.20
2014,11,05,21,42,1.60
2014,11,05,21,43,3.20
2014,11,05,21,47,3.20
2014,11,05,21,48,3.20
2014,11,05,21,50,1.60
2014,11,05,21,51,3.20
2014,11,05,21,52,4.80
2014,11,05,21,53,3.20
2014,11,05,21,55,4.80
2014,11,05,21,56,3.20
2014,11,05,21,57,1.60
2014,11,05,22,00,1.60
2014,11,05,22,01,1.60
2014,11,05,22,02,3.20
2014,11,05,22,06,4.80
2014,11,05,22,19,1.60
2014,11,05,22,21,3.20
2014,11,05,22,22,1.60
2014,11,05,22,23,4.80
2014,11,05,22,24,3.20
2014,11,05,22,25,3.20
2014,11,05,22,27,1.60
2014,11,05,22,29,1.60
2014,11,05,22,30,4.80
2014,11,05,22,31,3.20
2014,11,05,22,32,3.20
2014,11,05,22,33,4.80
2014,11,05,22,34,8.10
2014,11,05,22,35,4.80
2014,11,05,22,36,4.80
2014,11,05,22,38,8.10
2014,11,05,22,39,8.10
2014,11,05,22,40,8.10
2014,11,05,22,41,4.80
2014,11,05,22,42,1.60
2014,11,05,22,44,1.60
2014,11,05,23,06,3.20
2014,11,05,23,12,1.60
2014,11,05,23,34,1.60
2014,11,05,23,36,3.20
2014,11,05,23,37,1.60
2014,11,05,23,40,4.80
2014,11,05,23,41,3.20
2014,11,05,23,42,6.40
2014,11,05,23,43,4.80
2014,11,05,23,44,4.80
2014,11,05,23,45,4.80
2014,11,05,23,46,4.80
2014,11,05,23,47,4.80
2014,11,05,23,48,1.60
2014,11,05,23,50,1.60
2014,11,05,23,53,4.80
2014,11,05,23,57,8.10
2014,11,05,23,58,1.60
2014,11,05,23,59,1.60
